Perry, IA

12:16 PM CDT on September 21, 2017 (GMT -0500)
Perry Municipal

Weather History for KPRO - May, 2014

Change the Weather History Date:

Tuesday, May 20, 2014

  Actual Average Record
Temperature  
Mean Temperature 71 °F -  
Max Temperature 83 °F 74 °F 89 °F (1948)
Min Temperature 59 °F 50 °F 33 °F (1954)
Cooling Degree Days 6    
Growing Degree Days 21 (Base 50)    
Moisture  
Dew Point 59 °F    
Average Humidity 68    
Maximum Humidity 89    
Minimum Humidity 39    
Precipitation  
Precipitation 0.17 in - - ()
Sea Level Pressure  
Sea Level Pressure 29.81 in    
Wind  
Wind Speed 6 mph (East)    
Max Wind Speed 18 mph    
Max Gust Speed 22 mph    
Visibility 10 miles    
Events Rain    
Averages and records for this station are not official NWS values.
T = Trace of Precipitation, MM = Missing Value Source: NWS Daily Summary

Daily Weather History Graph

Daily Weather History Graph

Search for Another Location

Airport or City:

Trip Planner

Search our weather history database for the weather conditions in past years. The results will help you decide how hot, cold, wet, or windy it might be!

Date:

Astronomy

May. 20, 2014 Rise Set
Actual Time 5:52 AM CDT 8:34 PM CDT
Civil Twilight 5:19 AM CDT 9:07 PM CDT
Nautical Twilight 4:39 AM CDT 9:48 PM CDT
Astronomical Twilight 3:52 AM CDT 10:34 PM CDT
Moon 1:03 AM CDT (5/20) 12:02 PM CDT (5/20)
Length of Visible Light 15h 47m
Length of Day
14h 42m
Waning Gibbous, 60% of the Moon is Illuminated
May 20
Waning Gibbous
May 21
Last Quarter
May 28
New
Jun 5
First Quarter
Jun 12
Full

Hourly Weather History & Observations

Time (CDT) Temp. Heat Index Dew Point Humidity Pressure Visibility Wind Dir Wind Speed Gust Speed Precip Events Conditions
12:15 AM 66.7 °F - 57.9 °F 73% 29.75 in 10.0 mi SE 5.8 mph - N/A Rain Light Rain
12:35 AM 66.4 °F - 58.5 °F 76% 29.75 in 10.0 mi SSE 8.1 mph - N/A Rain Light Rain
12:55 AM 67.6 °F - 58.3 °F 72% 29.75 in 10.0 mi SSE 6.9 mph - N/A   Mostly Cloudy
1:15 AM 68.4 °F - 58.1 °F 70% 29.77 in 10.0 mi South 4.6 mph - N/A Rain Light Rain
1:35 AM 69.6 °F - 58.1 °F 67% 29.77 in 10.0 mi NNE 4.6 mph - 0.01 in   Overcast
1:55 AM 69.4 °F - 57.7 °F 66% 29.77 in 10.0 mi SE 9.2 mph 16.1 mph 0.02 in Rain Light Rain
2:15 AM 71.1 °F - 57.0 °F 61% 29.78 in 10.0 mi SW 3.5 mph - N/A   Overcast
2:35 AM 68.4 °F - 57.6 °F 68% 29.77 in 10.0 mi South 5.8 mph - N/A   Mostly Cloudy
2:55 AM 64.6 °F - 57.2 °F 77% 29.76 in 10.0 mi South 8.1 mph - N/A   Scattered Clouds
3:35 AM 63.9 °F - 56.1 °F 76% 29.77 in 10.0 mi SSW 5.8 mph - N/A   Clear
3:55 AM 63.0 °F - 55.9 °F 78% 29.77 in 10.0 mi SSW 5.8 mph - N/A   Clear
4:15 AM 64.2 °F - 55.8 °F 74% 29.78 in 10.0 mi SSW 5.8 mph - N/A   Clear
4:35 AM 62.2 °F - 55.4 °F 78% 29.78 in 10.0 mi South 5.8 mph - N/A   Clear
4:55 AM 63.1 °F - 55.6 °F 76% 29.78 in 10.0 mi SSW 5.8 mph - N/A   Clear
5:15 AM 63.1 °F - 55.2 °F 75% 29.77 in 10.0 mi South 5.8 mph - N/A   Clear
5:35 AM 61.2 °F - 55.0 °F 80% 29.77 in 10.0 mi South 5.8 mph - N/A   Clear
5:55 AM 60.8 °F - 54.9 °F 81% 29.79 in 10.0 mi SSW 8.1 mph - N/A   Clear
6:15 AM 59.0 °F - 54.5 °F 85% 29.77 in 10.0 mi South 8.1 mph - N/A   Clear
6:35 AM 59.9 °F - 55.4 °F 85% 29.80 in 10.0 mi NNW 5.8 mph - N/A   Clear
6:55 AM 61.7 °F - 56.3 °F 82% 29.81 in 10.0 mi Calm Calm - N/A   Clear
7:15 AM 62.8 °F - 58.1 °F 85% 29.81 in 10.0 mi Calm Calm - N/A   Clear
7:35 AM 65.5 °F - 57.6 °F 76% 29.82 in 10.0 mi Calm Calm - N/A   Clear
7:55 AM 66.4 °F - 58.5 °F 76% 29.83 in 10.0 mi North 3.5 mph - N/A   Clear
8:15 AM 68.0 °F - 59.0 °F 73% 29.83 in 10.0 mi NNW 3.5 mph - N/A   Clear
8:35 AM 69.1 °F - 59.5 °F 72% 29.83 in 10.0 mi Calm Calm - N/A   Clear
8:55 AM 70.3 °F - 58.3 °F 66% 29.83 in 10.0 mi WSW 3.5 mph - N/A   Clear
9:15 AM 71.8 °F - 58.6 °F 63% 29.83 in 10.0 mi WSW 5.8 mph - N/A   Clear
9:35 AM 72.3 °F - 58.1 °F 61% 29.84 in 10.0 mi SW 4.6 mph - N/A   Clear
9:55 AM 72.5 °F - 57.7 °F 60% 29.84 in 10.0 mi Calm Calm - N/A   Clear
10:15 AM 73.0 °F - 58.6 °F 61% 29.84 in 10.0 mi North 3.5 mph - N/A   Clear
10:35 AM 73.6 °F - 59.2 °F 61% 29.84 in 10.0 mi Calm Calm - N/A   Clear
10:55 AM 74.5 °F - 59.7 °F 60% 29.84 in 10.0 mi North 6.9 mph - N/A   Clear
11:20 AM 74.7 °F - 60.1 °F 60% 29.84 in 10.0 mi NE 5.8 mph - N/A   Clear
11:35 AM 75.6 °F - 60.3 °F 59% 29.83 in 10.0 mi NE 4.6 mph - N/A   Clear
11:55 AM 76.3 °F - 60.3 °F 57% 29.83 in 10.0 mi NE 5.8 mph - N/A   Clear
12:15 PM 77.5 °F - 60.4 °F 55% 29.84 in 10.0 mi ENE 3.5 mph - N/A   Clear
12:35 PM 77.9 °F - 59.7 °F 53% 29.83 in 10.0 mi ENE 5.8 mph - N/A   Clear
12:55 PM 79.5 °F - 59.9 °F 51% 29.83 in 10.0 mi East 6.9 mph - N/A   Clear
1:15 PM 80.6 °F 81.1 °F 59.4 °F 48% 29.83 in 10.0 mi Calm Calm - N/A   Clear
1:35 PM 82.2 °F 82.0 °F 57.4 °F 43% 29.83 in 10.0 mi East 6.9 mph - N/A   Clear
1:55 PM 82.8 °F 82.4 °F 57.7 °F 42% 29.83 in 10.0 mi East 8.1 mph - N/A   Scattered Clouds
2:15 PM 83.3 °F 82.6 °F 56.7 °F 40% 29.83 in 10.0 mi ESE 8.1 mph - N/A   Mostly Cloudy
2:35 PM 82.9 °F 82.4 °F 56.8 °F 41% 29.83 in 10.0 mi East 6.9 mph - N/A   Overcast
3:00 PM 83.1 °F 82.3 °F 55.9 °F 39% 29.82 in 10.0 mi East 9.2 mph - N/A   Mostly Cloudy
3:15 PM 83.7 °F 83.3 °F 58.1 °F 42% 29.82 in 10.0 mi ESE 12.7 mph - N/A   Mostly Cloudy
3:35 PM 83.5 °F 82.9 °F 57.6 °F 41% 29.81 in 10.0 mi East 11.5 mph 16.1 mph N/A   Overcast
3:55 PM 83.3 °F 82.9 °F 58.1 °F 42% 29.80 in 10.0 mi East 10.4 mph - N/A   Overcast
4:15 PM 83.7 °F 83.3 °F 58.5 °F 42% 29.80 in 10.0 mi East 6.9 mph - N/A   Overcast
4:35 PM 82.4 °F 82.3 °F 58.6 °F 44% 29.79 in 10.0 mi East 9.2 mph - N/A   Overcast
4:55 PM 81.0 °F 81.5 °F 59.4 °F 48% 29.79 in 10.0 mi East 5.8 mph - N/A   Overcast
5:15 PM 80.6 °F 80.9 °F 57.9 °F 46% 29.79 in 10.0 mi SSE 12.7 mph - N/A   Overcast
5:35 PM 80.4 °F 80.9 °F 58.5 °F 47% 29.79 in 10.0 mi SSE 12.7 mph - N/A   Overcast
5:55 PM 75.2 °F - 60.6 °F 60% 29.81 in 10.0 mi NNW 12.7 mph 21.9 mph N/A Rain Light Rain
6:15 PM 74.3 °F - 61.7 °F 65% 29.80 in 7.0 mi NNW 9.2 mph - 0.02 in Rain Rain
6:40 PM 68.0 °F - 63.1 °F 84% 29.81 in 2.5 mi NNW 18.4 mph - 0.14 in Rain Light Rain
6:55 PM 68.0 °F - 63.9 °F 87% 29.82 in 7.0 mi North 17.3 mph - 0.14 in   Overcast
7:20 PM 68.5 °F - 64.8 °F 88% 29.81 in 7.0 mi NNE 9.2 mph - N/A Rain Light Rain
7:35 PM 68.9 °F - 64.4 °F 86% 29.81 in 10.0 mi NE 9.2 mph - N/A   Overcast
7:55 PM 69.1 °F - 64.8 °F 86% 29.81 in 10.0 mi ENE 5.8 mph - N/A   Overcast
8:15 PM 68.9 °F - 64.4 °F 86% 29.82 in 10.0 mi ENE 6.9 mph - N/A   Overcast
8:35 PM 68.9 °F - 64.8 °F 87% 29.82 in 10.0 mi ESE 4.6 mph - 0.01 in Rain Light Rain
8:55 PM 68.9 °F - 63.9 °F 84% 29.82 in 10.0 mi NE 4.6 mph - 0.01 in Rain Light Rain
9:15 PM 68.0 °F - 62.1 °F 81% 29.82 in 10.0 mi NNE 4.6 mph - N/A   Scattered Clouds
9:35 PM 67.3 °F - 61.7 °F 82% 29.82 in 10.0 mi NNW 4.6 mph - N/A   Clear
9:55 PM 66.6 °F - 61.5 °F 84% 29.84 in 10.0 mi North 3.5 mph - N/A   Scattered Clouds
10:15 PM 67.1 °F - 61.9 °F 83% 29.84 in 10.0 mi NNW 4.6 mph - N/A   Mostly Cloudy
10:35 PM 66.4 °F - 61.7 °F 85% 29.85 in 10.0 mi Calm Calm - N/A   Overcast
10:50 PM 65.5 °F - 61.7 °F 88% 29.85 in 10.0 mi WSW 5.8 mph - N/A   Mostly Cloudy
11:15 PM 65.3 °F - 61.7 °F 88% 29.87 in 10.0 mi NW 5.8 mph - N/A   Scattered Clouds
11:35 PM 65.5 °F - 62.2 °F 89% 29.87 in 10.0 mi NNW 10.4 mph - N/A   Clear
11:55 PM 65.3 °F - 61.9 °F 89% 29.87 in 10.0 mi NNW 6.9 mph - N/A   Clear